Ramón Villeda Morales International Airport
MHLM : now visible

Airfield :











YOU CAN JOIN US ON...

 
LOGIN :

Register | Disclaimer

   EN    FR    IT 

 









Legend :    VFR   Marginal VFR   IFR   Intensive IFR   Very Intensive IFR
Visi :
Ceiling :
>= 8 km
>= 3000ft
5 to 8 km
1000 to 3000 ft
1500m to 5 km
500 to 1000 ft
800 to 1500m
200 to 500 ft
< 800m
< 200 ft
Symbols :   Thunderstorms  Fog  Heavy snow  Heavy precipitations  Wind > 20 kt






- Airport Elevation : 91 ft
- IATA code : SAP


MHLM - Ramón Villeda Morales International

CURRENT METAR :
  • 062200Z 08016KT 9999 FEW026 32/23 Q1010 A2983

EXPIRED METARs :
  • 062100Z 06012KT 9999 FEW028 34/23 Q1010 A2983
  • 062000Z 08012KT 9999 FEW028 34/22 Q1011 A2986

TAF TAF MHLM
Valid from the 06 at 18:00 until the 07 at 18:00 UTC


061630Z 0618/0718 03012KT 9999 SCT028 TX35/0620Z TN23/0712Z
BECMG 0703/0705 SCT026 SCT090
BECMG 0708/0710 21004KT



MET'MAP, your aeronautical weather chart ! - Copyright ORBIFLY December 2007 - Disclaimer

ORBIFLY MET'MAP TEAM :

Programming & Development : Alexandra Zaïnal
Concept & original design : Baudouin d'Aumeries
Assistance for programming : Marc-Olivier Méhu
Technical & hardware support : Manuel Goepfert

Contact : metmap@orbifly.com




SOURCES & CREDITS :

   NOAA       Earth
Advisory